{"data":{"norad_id":44450,"epoch":"2026-09-20T00:20:44.248128Z","epoch_age_seconds":103661,"freshness":"FRESH","line1":"1 44450U 19045B   26263.01440102  .00001742  00000+0  12867-3 0  9997","line2":"2 44450  34.9917 111.4531 0008368 191.2675 168.7846 15.03082059390931","mean_motion":15.03082059,"eccentricity":0.0008368,"inclination_deg":34.9917,"raan_deg":111.4531,"arg_perigee_deg":191.2675,"mean_anomaly_deg":168.7846,"bstar":0.00012867,"rev_number":39093,"period_min":95.803152687354,"perigee_km":551.59561400475,"apogee_km":563.20292750749,"semimajor_km":6935.5362707561,"source":"CELESTRAK","updated_at":"2026-09-20T09:00:14.527909Z"}}